Find Starlink 11726

NORAD ID: 64067 Int'l Des: 2025-107 Owner: SPXS Country: US Constellation: starlink operational
LEOCIRCULAR

Live Position

Loading 3D Globe...

About Starlink 11726

Description loading...

Upcoming Passes

Passes for default location (London). Set your location on the main map for personalized predictions.

Altitude History

Loading altitude history...

Two-Line Element Set

1 64067U 25107D 26105.65757864 .00154800 00000-0 11840-2 0 9994
2 64067 43.0001 235.2665 0000794 173.1906 186.8973 15.70911506 53116
Epoch: Apr 15, 2026 • Age: 7 hours

Current Status

Altitude 354.9 km
Velocity 7.70 km/s
Sub-Earth Point 20.26°N, 151.49°W
Launch Date May 21, 2025
Age 0.9 years
Type internet

Technical Details

Classification Payload
Mass 960.00 kg
Dry Mass 910.00 kg
Total Mass 960.00 kg
Length 0.30 m
Diameter 4.10 m
Span 29.00 m
Shape Box + pan
Manufacturer SPXS
Bus Type Starlink V2MD
Phase Status In Orbit
Owner/State SPXS/US

Most Searched